Location: Detroit
(42.3310°N, 83.0460°W)
Time: 20:06:20
(UTC-04:00)

A-11 Canister half - Pass Details

Date: 15 February 2023
Orbit: 1526 x 1682 km, 47.3° (Epoch: 29 March)

Event Time Altitude Azimuth Distance (km) Brightness Sun altitude
Rises 05:32:24 0° 271° (W) 4,691 - -22.1°
Reaches altitude 10° 05:35:30 10° 274° (W) 3,700 - -21.5°
Exits shadow 05:39:34 30° 283° (WNW) 2,491 9.5 -20.8°
Maximum altitude 05:44:45 66° 356° (N) 1,651 9.1 -19.8°
Drops below altitude 10° 05:54:04 10° 78° (ENE) 3,721 12.2 -18.1°
Sets 05:57:12 0° 82° (E) 4,719 13.2 -17.5°
